Location: Hilton Head Island
(32.2163°N, 80.7526°W)
Time: 12:46:56
(UTC-05:00)

SR - All Passes

Search period start: 18 February 2026 00:00
Search period end: 28 February 2026 00:00
Orbit: 574 x 847 km, 66.7° (Epoch: 17 February)

Date Brightness Start Highest point End Pass type
(mag) Time Alt. Az. Time Alt. Az. Time Alt. Az.
18 Feb - 04:26:02 10° SSW 04:30:11 69° WNW 04:34:28 10° NNE visible
18 Feb - 13:08:40 10° N 13:13:05 28° ENE 13:17:44 10° ESE daylight
18 Feb - 14:50:02 10° NW 14:54:43 33° WSW 14:59:39 10° S daylight
19 Feb - 03:31:31 10° S 03:35:22 37° ESE 03:39:19 10° NE visible
19 Feb - 05:14:39 10° W 05:17:09 15° NW 05:19:42 10° NNW visible
19 Feb - 12:15:36 10° NNE 12:17:46 12° NE 12:19:59 10° ENE daylight
19 Feb - 13:54:40 10° NNW 13:59:54 81° WSW 14:05:29 10° SSE daylight
20 Feb - 02:38:54 10° SE 02:40:46 13° ESE 02:42:39 10° ENE night (unlit)
20 Feb - 04:18:01 10° SW 04:21:56 39° WNW 04:25:59 10° N visible
20 Feb - 12:59:58 10° N 13:04:55 43° ENE 13:10:10 10° SE daylight
20 Feb - 14:42:27 10° WNW 14:46:21 21° WSW 14:50:24 10° SSW daylight
21 Feb - 03:22:51 10° SSW 03:26:59 69° ESE 03:31:16 10° NNE night (unlit)
21 Feb - 12:06:03 10° N 12:09:44 19° NE 12:13:35 10° E daylight
21 Feb - 13:46:31 10° NW 13:51:36 50° WSW 13:56:59 10° S daylight
22 Feb - 02:29:00 10° SSE 02:32:17 22° ESE 02:35:37 10° NE night (unlit)
22 Feb - 04:10:22 10° WSW 04:13:45 23° WNW 04:17:16 10° N visible
22 Feb - 12:51:29 10° NNW 12:56:43 68° ENE 13:02:15 10° SSE daylight
22 Feb - 14:35:38 10° W 14:37:55 13° WSW 14:40:15 10° SW daylight
23 Feb - 03:14:31 10° SW 03:18:40 66° WNW 03:22:59 10° NNE night (unlit)
23 Feb - 11:57:07 10° N 12:01:38 29° ENE 12:06:24 10° ESE daylight
23 Feb - 13:38:36 10° NW 13:43:16 32° WSW 13:48:10 10° S daylight
24 Feb - 02:19:57 10° S 02:23:51 39° ESE 02:27:52 10° NE night (unlit)
24 Feb - 04:03:17 10° W 04:05:40 15° NW 04:08:08 10° NNW night (unlit)
24 Feb - 11:03:53 10° NNE 11:06:19 13° NE 11:08:51 10° E daylight
24 Feb - 12:43:10 10° NNW 12:48:27 77° WSW 12:54:03 10° SSE daylight
25 Feb - 01:27:09 10° SE 01:29:14 14° ESE 01:31:21 10° ENE night (unlit)
25 Feb - 03:06:32 10° SW 03:10:25 37° WNW 03:14:28 10° N night (unlit)
25 Feb - 11:48:27 10° NNW 11:53:28 45° ENE 11:58:47 10° SE daylight
25 Feb - 13:31:01 10° WNW 13:34:52 20° WSW 13:38:51 10° SSW daylight
26 Feb - 02:11:18 10° SSW 02:15:28 73° ESE 02:19:46 10° NNE night (unlit)
26 Feb - 10:54:27 10° N 10:58:17 20° NE 11:02:17 10° ESE daylight
26 Feb - 12:35:01 10° NW 12:40:08 48° WSW 12:45:31 10° S daylight
27 Feb - 01:17:22 10° SSE 01:20:45 24° ESE 01:24:11 10° NE night (unlit)
27 Feb - 02:58:54 10° WSW 03:02:15 22° NW 03:05:42 10° N night (unlit)
27 Feb - 11:39:57 10° NNW 11:45:14 71° ENE 11:50:50 10° SSE daylight
27 Feb - 13:24:20 10° W 13:26:25 12° WSW 13:28:33 10° SW daylight
